,,Stat5,,Stat1,,Stat2,,Stat3,,Stat4,,Wind1,,Wind1,
time,status,PA1M_AVG,status,PR1M_SUM,status,RH1M_AVG,status,SR1M_AVG,status,TA1M_AVG,status,W1dAve1m,status,W1sAve1m,
2001-12-15, 00:00:01,VALID,920.023,VALID,0,VALID,97.8436,VALID,0,VALID,19.8491,VALID,17,VALID,0.880208,
2001-12-15, 00:01:00,VALID,920.017,VALID,0,VALID,97.8296,VALID,-0.0339617,VALID,19.823,VALID,21,VALID,0.667441,
2001-12-15, 00:02:00,VALID,920.011,VALID,0,VALID,97.7546,VALID,0,VALID,19.8041,VALID,3,VALID,1.31272,
2001-12-15, 00:03:00,VALID,920.011,VALID,0,VALID,97.6986,VALID,0,VALID,19.7646,VALID,21,VALID,1.14474,
2001-12-15, 00:04:00,VALID,920.006,VALID,0,VALID,97.8207,VALID,0,VALID,19.7748,VALID,17,VALID,0.861111,
2001-12-15, 00:05:00,VALID,920.007,VALID,0,VALID,97.8907,VALID,-0.0339617,VALID,19.7877,VALID,5,VALID,0.645354,
2001-12-15, 00:06:00,VALID,920.014,VALID,0,VALID,97.8563,VALID,-0.0169808,VALID,19.7681,VALID,8,VALID,0.545186,
2001-12-15, 00:07:00,VALID,919.996,VALID,0,VALID,97.9504,VALID,0,VALID,19.7718,VALID,17,VALID,0.568304,
2001-12-15, 00:08:00,VALID,919.985,VALID,0,VALID,97.9046,VALID,-0.0339617,VALID,19.7618,VALID,278,VALID,0.595753,
2001-12-15, 00:09:00,VALID,919.971,VALID,0,VALID,97.8334,VALID,0,VALID,19.7196,VALID,337,VALID,0.49929,
2001-12-15, 00:10:00,VALID,919.943,VALID,0,VALID,97.8334,VALID,-0.0169808,VALID,19.7064,VALID,359,VALID,0.591741,
2001-12-15, 00:11:00,VALID,919.924,VALID,0,VALID,97.8767,VALID,-0.0339617,VALID,19.6843,VALID,360,VALID,0.291596,
2001-12-15, 00:12:00,VALID,919.903,VALID,0,VALID,97.9835,VALID,0,VALID,19.6972,VALID,18,VALID,0.635769,
2001-12-15, 00:13:00,VALID,919.897,VALID,0,VALID,98.0471,VALID,0,VALID,19.7067,VALID,19,VALID,0.401316,
2001-12-15, 00:14:00,VALID,919.889,VALID,0,VALID,97.9619,VALID,-0.0169808,VALID,19.6836,VALID,9,VALID,0.401693,
2001-12-15, 00:15:00,VALID,919.878,VALID,0,VALID,97.9962,VALID,0,VALID,19.6808,VALID,22,VALID,0.566612,
2001-12-15, 00:16:00,VALID,919.857,VALID,0,VALID,98.0928,VALID,0,VALID,19.6935,VALID,11,VALID,0.245355,
2001-12-15, 00:17:00,VALID,919.866,VALID,0,VALID,98.1412,VALID,0.0169808,VALID,19.7231,VALID,11,VALID,0.0397518,
2001-12-15, 00:18:00,VALID,919.855,VALID,0,VALID,98.1348,VALID,-0.0339617,VALID,19.7099,VALID,11,VALID,0,
2001-12-15, 00:19:00,VALID,919.863,VALID,0,VALID,98.1157,VALID,0,VALID,19.7129,VALID,11,VALID,0,
2001-12-15, 00:20:00,VALID,919.862,VALID,0,VALID,98.0941,VALID,0,VALID,19.7199,VALID,11,VALID,0.187089,
2001-12-15, 00:21:00,VALID,919.857,VALID,0,VALID,98.089,VALID,0,VALID,19.7064,VALID,13,VALID,0.168497,
2001-12-15, 00:22:00,VALID,919.872,VALID,0,VALID,98.0471,VALID,0,VALID,19.6938,VALID,10,VALID,0.534821,
2001-12-15, 00:23:00,VALID,919.868,VALID,0,VALID,98.0547,VALID,0,VALID,19.6808,VALID,11,VALID,0.480369,
2001-12-15, 00:24:00,VALID,919.872,VALID,0,VALID,98.0852,VALID,0,VALID,19.6905,VALID,10,VALID,0.619555,
2001-12-15, 00:25:00,VALID,919.888,VALID,0,VALID,98.1094,VALID,-0.0339617,VALID,19.6739,VALID,354,VALID,0.279911,
2001-12-15, 00:26:00,VALID,919.868,VALID,0,VALID,98.0763,VALID,-0.0169808,VALID,19.6682,VALID,353,VALID,0.328336,
2001-12-15, 00:27:00,VALID,919.862,VALID,0,VALID,98.1259,VALID,-0.0169808,VALID,19.6515,VALID,5,VALID,0.427576,
2001-12-15, 00:28:00,VALID,919.838,VALID,0,VALID,98.089,VALID,0.0169808,VALID,19.6421,VALID,354,VALID,0.510074,
2001-12-15, 00:29:00,VALID,919.836,VALID,0,VALID,98.0483,VALID,0,VALID,19.6229,VALID,329,VALID,0.450304,
2001-12-15, 00:30:00,VALID,919.824,VALID,0,VALID,98.0382,VALID,0,VALID,19.5934,VALID,323,VALID,0.450041,
2001-12-15, 00:31:00,VALID,919.837,VALID,0,VALID,98.0725,VALID,-0.0169808,VALID,19.5839,VALID,332,VALID,0.416385,
2001-12-15, 00:32:00,VALID,919.819,VALID,0,VALID,98.1348,VALID,-0.0169808,VALID,19.5872,VALID,343,VALID,0.324908,
2001-12-15, 00:33:00,VALID,919.808,VALID,0,VALID,98.1437,VALID,-0.0169808,VALID,19.5777,VALID,349,VALID,0.349712,
2001-12-15, 00:34:00,VALID,919.796,VALID,0,VALID,98.2086,VALID,0,VALID,19.5971,VALID,350,VALID,0.284417,
2001-12-15, 00:35:00,VALID,919.8,VALID,0,VALID,98.1768,VALID,0,VALID,19.5772,VALID,339,VALID,0.363076,
2001-12-15, 00:36:00,VALID,919.799,VALID,0,VALID,98.2111,VALID,0,VALID,19.5842,VALID,4,VALID,0.461993,
2001-12-15, 00:37:00,VALID,919.794,VALID,0,VALID,98.2645,VALID,0,VALID,19.5906,VALID,13,VALID,0.498884,
2001-12-15, 00:38:00,VALID,919.801,VALID,0,VALID,98.2671,VALID,0,VALID,19.5906,VALID,1,VALID,0.458934,
2001-12-15, 00:39:00,VALID,919.784,VALID,0,VALID,98.2302,VALID,-0.0169808,VALID,19.5809,VALID,351,VALID,0.419981,
2001-12-15, 00:40:00,VALID,919.781,VALID,0,VALID,98.281,VALID,0.0169808,VALID,19.5872,VALID,9,VALID,0.432589,
2001-12-15, 00:41:00,VALID,919.761,VALID,0,VALID,98.3039,VALID,-0.0339617,VALID,19.6038,VALID,352,VALID,0.479519,
2001-12-15, 00:42:00,VALID,919.727,VALID,0,VALID,98.1755,VALID,0,VALID,19.5618,VALID,349,VALID,0.581292,
2001-12-15, 00:43:00,VALID,919.69,VALID,0,VALID,98.1602,VALID,0.0169808,VALID,19.5618,VALID,360,VALID,0.0890214,
2001-12-15, 00:44:00,VALID,919.647,VALID,0,VALID,98.1564,VALID,-0.0339617,VALID,19.5389,VALID,360,VALID,0,
2001-12-15, 00:45:00,VALID,919.607,VALID,0,VALID,98.1552,VALID,-0.0169808,VALID,19.5422,VALID,360,VALID,0,
2001-12-15, 00:46:00,VALID,919.559,VALID,0,VALID,98.1641,VALID,0,VALID,19.5387,VALID,360,VALID,0,
2001-12-15, 00:47:00,VALID,919.546,VALID,0,VALID,98.1691,VALID,-0.0169808,VALID,19.5387,VALID,322,VALID,0,
2001-12-15, 00:48:00,VALID,919.529,VALID,0,VALID,98.1869,VALID,-0.0169808,VALID,19.5417,VALID,257,VALID,0.0296053,
2001-12-15, 00:49:00,VALID,919.536,VALID,0,VALID,98.206,VALID,0,VALID,19.5419,VALID,257,VALID,0.00211149,
2001-12-15, 00:50:00,VALID,919.532,VALID,0,VALID,98.2671,VALID,0,VALID,19.5553,VALID,280,VALID,0.00102796,
2001-12-15, 00:51:00,VALID,919.519,VALID,0,VALID,98.3446,VALID,-0.0169808,VALID,19.5847,VALID,326,VALID,0,
2001-12-15, 00:52:00,VALID,919.524,VALID,0,VALID,98.3357,VALID,0,VALID,19.5911,VALID,360,VALID,0.383036,
2001-12-15, 00:53:00,VALID,919.523,VALID,0,VALID,98.2849,VALID,-0.0339617,VALID,19.5678,VALID,6,VALID,0.378405,
2001-12-15, 00:54:00,VALID,919.522,VALID,0,VALID,98.3001,VALID,-0.0169808,VALID,19.575,VALID,6,VALID,0.363873,
2001-12-15, 00:55:00,VALID,919.54,VALID,0,VALID,98.2938,VALID,-0.0509425,VALID,19.565,VALID,7,VALID,0.113616,
2001-12-15, 00:56:00,VALID,919.528,VALID,0,VALID,98.3141,VALID,-0.0339617,VALID,19.5688,VALID,7,VALID,0,
2001-12-15, 00:57:00,VALID,919.529,VALID,0,VALID,98.3421,VALID,0.0169808,VALID,19.5618,VALID,7,VALID,0,
2001-12-15, 00:58:00,VALID,919.536,VALID,0,VALID,98.3561,VALID,-0.0169808,VALID,19.5618,VALID,7,VALID,0,
2001-12-15, 00:59:00,VALID,919.53,VALID,0,VALID,98.351,VALID,-0.0339617,VALID,19.5655,VALID,7,VALID,0.0460069,
2001-12-15, 01:00:00,VALID,919.516,VALID,0,VALID,98.3497,VALID,0,VALID,19.5586,VALID,1,VALID,0.397821,
2001-12-15, 01:01:00,VALID,919.505,VALID,0,VALID,98.2836,VALID,-0.0169808,VALID,19.5099,VALID,5,VALID,0.571579,
2001-12-15, 01:02:00,VALID,919.499,VALID,0,VALID,98.3065,VALID,-0.0169808,VALID,19.5101,VALID,8,VALID,0.139246,
2001-12-15, 01:03:00,VALID,919.483,VALID,0,VALID,98.2696,VALID,0,VALID,19.4942,VALID,332,VALID,0.170641,
2001-12-15, 01:04:00,VALID,919.46,VALID,0,VALID,98.2836,VALID,-0.0169808,VALID,19.4714,VALID,319,VALID,0.0715794,
2001-12-15, 01:05:00,VALID,919.445,VALID,0,VALID,98.2531,VALID,0,VALID,19.4684,VALID,316,VALID,0,
2001-12-15, 01:06:00,VALID,919.435,VALID,0,VALID,98.2721,VALID,0,VALID,19.4614,VALID,316,VALID,0,
2001-12-15, 01:07:00,VALID,919.415,VALID,0,VALID,98.2696,VALID,-0.0169808,VALID,19.4453,VALID,316,VALID,0,
2001-12-15, 01:08:00,VALID,919.415,VALID,0,VALID,98.2493,VALID,0,VALID,19.4557,VALID,316,VALID,0,
2001-12-15, 01:09:00,VALID,919.415,VALID,0,VALID,98.2861,VALID,-0.0339617,VALID,19.4624,VALID,316,VALID,0,
2001-12-15, 01:10:00,VALID,919.401,VALID,0,VALID,98.3357,VALID,-0.0339617,VALID,19.4684,VALID,316,VALID,0,
2001-12-15, 01:11:00,VALID,919.387,VALID,0,VALID,98.3573,VALID,-0.0339617,VALID,19.4781,VALID,317,VALID,0,
2001-12-15, 01:12:00,VALID,919.359,VALID,0,VALID,98.3955,VALID,-0.0339617,VALID,19.5009,VALID,342,VALID,0,
2001-12-15, 01:13:00,VALID,919.351,VALID,0,VALID,98.4235,VALID,0,VALID,19.5069,VALID,357,VALID,0,
2001-12-15, 01:14:00,VALID,919.359,VALID,0,VALID,98.4476,VALID,-0.0339617,VALID,19.5268,VALID,359,VALID,0.168837,
2001-12-15, 01:15:00,VALID,919.347,VALID,0,VALID,98.4438,VALID,0,VALID,19.5134,VALID,4,VALID,0.496299,
2001-12-15, 01:16:00,VALID,919.337,VALID,0,VALID,98.3688,VALID,-0.0169808,VALID,19.4907,VALID,4,VALID,0.736909,
2001-12-15, 01:17:00,VALID,919.321,VALID,0,VALID,98.384,VALID,-0.0339617,VALID,19.4882,VALID,11,VALID,0.506893,
2001-12-15, 01:18:00,VALID,919.295,VALID,0,VALID,98.4057,VALID,0,VALID,19.485,VALID,5,VALID,0.457442,
2001-12-15, 01:19:00,VALID,919.273,VALID,0,VALID,98.3751,VALID,-0.0169808,VALID,19.4455,VALID,5,VALID,0.468961,
2001-12-15, 01:20:00,VALID,919.264,VALID,0,VALID,98.3662,VALID,0,VALID,19.4363,VALID,14,VALID,0.396998,
2001-12-15, 01:21:00,VALID,919.247,VALID,0,VALID,98.351,VALID,0,VALID,19.4167,VALID,10,VALID,0.56609,
2001-12-15, 01:22:00,VALID,919.239,VALID,0,VALID,98.3014,VALID,-0.0169808,VALID,19.3812,VALID,343,VALID,0.399777,
2001-12-15, 01:23:00,VALID,919.236,VALID,0,VALID,98.2887,VALID,-0.0339617,VALID,19.3682,VALID,335,VALID,0.173277,
2001-12-15, 01:24:00,VALID,919.221,VALID,0,VALID,98.2874,VALID,-0.0169808,VALID,19.3553,VALID,315,VALID,0.354403,
2001-12-15, 01:25:00,VALID,919.209,VALID,0,VALID,98.3459,VALID,0,VALID,19.3581,VALID,325,VALID,0.0328125,
2001-12-15, 01:26:00,VALID,919.201,VALID,0,VALID,98.3802,VALID,-0.0509425,VALID,19.3779,VALID,335,VALID,0.0299831,
2001-12-15, 01:27:00,VALID,919.187,VALID,0,VALID,98.3713,VALID,0,VALID,19.3906,VALID,360,VALID,0.00696791,
2001-12-15, 01:28:00,VALID,919.184,VALID,0,VALID,98.2938,VALID,-0.0169808,VALID,19.3976,VALID,359,VALID,0.891036,
2001-12-15, 01:29:00,VALID,919.178,VALID,0,VALID,98.2137,VALID,-0.0509425,VALID,19.3526,VALID,349,VALID,1.1237,
2001-12-15, 01:30:00,VALID,919.173,VALID,0,VALID,98.1844,VALID,0,VALID,19.3429,VALID,353,VALID,0.793791,
2001-12-15, 01:31:00,VALID,919.159,VALID,0,VALID,98.1971,VALID,-0.0679233,VALID,19.33,VALID,339,VALID,0.984797,
2001-12-15, 01:32:00,VALID,919.15,VALID,0,VALID,98.2048,VALID,-0.0169808,VALID,19.3168,VALID,333,VALID,0.982307,
2001-12-15, 01:33:00,VALID,919.138,VALID,0,VALID,98.2467,VALID,-0.0169808,VALID,19.3237,VALID,350,VALID,0.726357,
2001-12-15, 01:34:00,VALID,919.128,VALID,0,VALID,98.2772,VALID,0,VALID,19.327,VALID,354,VALID,1.15351,
2001-12-15, 01:35:00,VALID,919.102,VALID,0,VALID,98.2772,VALID,-0.0339617,VALID,19.3071,VALID,4,VALID,0.778372,
2001-12-15, 01:36:00,VALID,919.1,VALID,0,VALID,98.2874,VALID,-0.0509425,VALID,19.2974,VALID,12,VALID,1.0435,
2001-12-15, 01:37:00,VALID,919.073,VALID,0,VALID,98.3268,VALID,-0.0339617,VALID,19.3138,VALID,11,VALID,0.851339,
2001-12-15, 01:38:00,VALID,919.065,VALID,0,VALID,98.3332,VALID,-0.0169808,VALID,19.3136,VALID,15,VALID,0.266026,
2001-12-15, 01:39:00,VALID,919.043,VALID,0,VALID,98.3128,VALID,0,VALID,19.2967,VALID,352,VALID,0.277225,
2001-12-15, 01:40:00,VALID,919.032,VALID,0,VALID,98.3192,VALID,-0.0509425,VALID,19.3041,VALID,3,VALID,0.612946,
2001-12-15, 01:41:00,VALID,919.02,VALID,0,VALID,98.295,VALID,0,VALID,19.281,VALID,9,VALID,0.754645,
2001-12-15, 01:42:00,VALID,919.014,VALID,0,VALID,98.3141,VALID,-0.0169808,VALID,19.288,VALID,21,VALID,0.834248,
2001-12-15, 01:43:00,VALID,918.998,VALID,0,VALID,98.3103,VALID,-0.0339617,VALID,19.2718,VALID,359,VALID,0.706003,
2001-12-15, 01:44:00,VALID,919.007,VALID,0,VALID,98.2607,VALID,0,VALID,19.2425,VALID,338,VALID,0.620226,
2001-12-15, 01:45:00,VALID,919,VALID,0,VALID,98.2556,VALID,-0.0169808,VALID,19.2333,VALID,356,VALID,0.714021,
2001-12-15, 01:46:00,VALID,918.994,VALID,0,VALID,98.2861,VALID,-0.0339617,VALID,19.2167,VALID,356,VALID,0.713049,
2001-12-15, 01:47:00,VALID,918.981,VALID,0,VALID,98.3154,VALID,-0.0169808,VALID,19.2204,VALID,359,VALID,0.682675,
2001-12-15, 01:48:00,VALID,918.978,VALID,0,VALID,98.2989,VALID,-0.0679233,VALID,19.1906,VALID,5,VALID,0.723684,
2001-12-15, 01:49:00,VALID,918.95,VALID,0,VALID,98.2963,VALID,-0.0339617,VALID,19.1908,VALID,356,VALID,0.698269,
2001-12-15, 01:50:00,VALID,918.96,VALID,0,VALID,98.2785,VALID,-0.0509425,VALID,19.1848,VALID,354,VALID,0.939762,
2001-12-15, 01:51:00,VALID,918.96,VALID,0,VALID,98.2798,VALID,-0.0339617,VALID,19.1816,VALID,5,VALID,0.567145,
2001-12-15, 01:52:00,VALID,918.961,VALID,0,VALID,98.2925,VALID,-0.0339617,VALID,19.1846,VALID,11,VALID,0.372321,
2001-12-15, 01:53:00,VALID,918.953,VALID,0,VALID,98.3141,VALID,-0.0339617,VALID,19.1978,VALID,348,VALID,0.23758,
2001-12-15, 01:54:00,VALID,918.921,VALID,0,VALID,98.3446,VALID,-0.0509425,VALID,19.2142,VALID,7,VALID,0.304451,
2001-12-15, 01:55:00,VALID,918.908,VALID,0,VALID,98.3459,VALID,-0.0509425,VALID,19.2268,VALID,349,VALID,0.244196,
2001-12-15, 01:56:00,VALID,918.883,VALID,0,VALID,98.337,VALID,-0.0509425,VALID,19.2303,VALID,331,VALID,0.288218,
2001-12-15, 01:57:00,VALID,918.881,VALID,0,VALID,98.3472,VALID,-0.0679233,VALID,19.2338,VALID,294,VALID,0.172931,
2001-12-15, 01:58:01,VALID,918.865,VALID,0,VALID,98.3815,VALID,-0.0849042,VALID,19.237,VALID,292,VALID,0,
2001-12-15, 01:59:00,VALID,918.842,VALID,0,VALID,98.4286,VALID,-0.0679233,VALID,19.2497,VALID,292,VALID,0,
2001-12-15, 02:00:00,VALID,918.826,VALID,0,VALID,98.4743,VALID,-0.0849042,VALID,19.2723,VALID,292,VALID,0,
2001-12-15, 02:01:00,VALID,918.807,VALID,0,VALID,98.4896,VALID,-0.0849042,VALID,19.2716,VALID,292,VALID,0,
2001-12-15, 02:02:00,VALID,918.795,VALID,0,VALID,98.5328,VALID,-0.0679233,VALID,19.2949,VALID,292,VALID,0,
2001-12-15, 02:03:00,VALID,918.788,VALID,0,VALID,98.5455,VALID,-0.0339617,VALID,19.3044,VALID,292,VALID,0,
2001-12-15, 02:04:00,VALID,918.779,VALID,0,VALID,98.5608,VALID,-0.0169808,VALID,19.3138,VALID,302,VALID,0,
2001-12-15, 02:05:00,VALID,918.763,VALID,0,VALID,98.5964,VALID,-0.0339617,VALID,19.3235,VALID,9,VALID,0,
2001-12-15, 02:06:00,VALID,918.755,VALID,0,VALID,98.6193,VALID,-0.152827,VALID,19.3441,VALID,13,VALID,0,
2001-12-15, 02:07:00,VALID,918.731,VALID,0,VALID,98.6231,VALID,-0.118866,VALID,19.3473,VALID,15,VALID,0,
2001-12-15, 02:08:01,VALID,918.732,VALID,0,VALID,98.557,VALID,-0.101885,VALID,19.3344,VALID,16,VALID,0,
2001-12-15, 02:09:00,VALID,918.724,VALID,0,VALID,98.5303,VALID,-0.118866,VALID,19.3061,VALID,16,VALID,0,
2001-12-15, 02:10:00,VALID,918.721,VALID,0,VALID,98.5468,VALID,-0.152827,VALID,19.2795,VALID,16,VALID,0,
2001-12-15, 02:11:00,VALID,918.715,VALID,0,VALID,98.5506,VALID,-0.135847,VALID,19.2668,VALID,348,VALID,0,
2001-12-15, 02:12:00,VALID,918.718,VALID,0,VALID,98.5595,VALID,-0.118866,VALID,19.2474,VALID,336,VALID,0,
2001-12-15, 02:13:01,VALID,918.729,VALID,0,VALID,98.5977,VALID,-0.135847,VALID,19.2541,VALID,335,VALID,0,
2001-12-15, 02:14:00,VALID,918.724,VALID,0,VALID,98.604,VALID,-0.118866,VALID,19.2442,VALID,334,VALID,0,
2001-12-15, 02:15:00,VALID,918.741,VALID,0,VALID,98.6231,VALID,-0.135847,VALID,19.238,VALID,334,VALID,0,
2001-12-15, 02:16:00,VALID,918.741,VALID,0,VALID,98.6346,VALID,-0.135847,VALID,19.2315,VALID,334,VALID,0,
2001-12-15, 02:17:00,VALID,918.746,VALID,0,VALID,98.6752,VALID,-0.118866,VALID,19.2377,VALID,334,VALID,0,
2001-12-15, 02:18:00,VALID,918.744,VALID,0,VALID,98.6867,VALID,-0.101885,VALID,19.2375,VALID,334,VALID,0,
2001-12-15, 02:19:00,VALID,918.755,VALID,0,VALID,98.7147,VALID,-0.101885,VALID,19.2338,VALID,334,VALID,0,
2001-12-15, 02:20:00,VALID,918.764,VALID,0,VALID,98.7299,VALID,-0.0849042,VALID,19.2402,VALID,334,VALID,0,
2001-12-15, 02:21:01,VALID,918.766,VALID,0,VALID,98.7236,VALID,-0.0169808,VALID,19.246,VALID,334,VALID,0,
2001-12-15, 02:22:00,VALID,918.759,VALID,0,VALID,98.7337,VALID,-0.0169808,VALID,19.2452,VALID,334,VALID,0,
2001-12-15, 02:23:01,VALID,918.752,VALID,0,VALID,98.7719,VALID,0,VALID,19.2584,VALID,334,VALID,0,
2001-12-15, 02:24:00,VALID,918.753,VALID,0,VALID,98.777,VALID,0,VALID,19.2713,VALID,335,VALID,0,
2001-12-15, 02:25:00,VALID,918.732,VALID,0,VALID,98.7757,VALID,0.0169808,VALID,19.2651,VALID,335,VALID,0,
2001-12-15, 02:26:00,VALID,918.725,VALID,0,VALID,98.763,VALID,-0.0339617,VALID,19.2462,VALID,335,VALID,0,
2001-12-15, 02:27:00,VALID,918.725,VALID,0,VALID,98.7337,VALID,-0.0169808,VALID,19.2231,VALID,339,VALID,0,
2001-12-15, 02:28:01,VALID,918.739,VALID,0,VALID,98.7541,VALID,-0.0169808,VALID,19.2137,VALID,19,VALID,0,
2001-12-15, 02:29:00,VALID,918.732,VALID,0,VALID,98.7795,VALID,-0.0339617,VALID,19.2268,VALID,19,VALID,0,
2001-12-15, 02:30:00,VALID,918.733,VALID,0,VALID,98.8164,VALID,0,VALID,19.2358,VALID,19,VALID,0,
2001-12-15, 02:31:00,VALID,918.72,VALID,0,VALID,98.8596,VALID,0,VALID,19.2582,VALID,20,VALID,0,
2001-12-15, 02:32:00,VALID,918.713,VALID,0,VALID,98.8851,VALID,0.0169808,VALID,19.2877,VALID,20,VALID,0,
2001-12-15, 02:33:00,VALID,918.703,VALID,0,VALID,98.899,VALID,-0.0339617,VALID,19.3039,VALID,20,VALID,0,
2001-12-15, 02:34:00,VALID,918.687,VALID,0,VALID,98.9003,VALID,0,VALID,19.3464,VALID,21,VALID,0,
2001-12-15, 02:35:00,VALID,918.681,VALID,0,VALID,98.9105,VALID,0,VALID,19.3486,VALID,21,VALID,0,
2001-12-15, 02:36:01,VALID,918.677,VALID,0,VALID,98.9207,VALID,0,VALID,19.3526,VALID,21,VALID,0,
2001-12-15, 02:37:00,VALID,918.669,VALID,0,VALID,98.9054,VALID,0,VALID,19.3521,VALID,22,VALID,0,
2001-12-15, 02:38:01,VALID,918.669,VALID,0,VALID,98.9041,VALID,0,VALID,19.3424,VALID,21,VALID,0,
2001-12-15, 02:39:00,VALID,918.661,VALID,0,VALID,98.9029,VALID,0,VALID,19.3459,VALID,21,VALID,0,
2001-12-15, 02:40:00,VALID,918.663,VALID,0,VALID,98.8863,VALID,-0.0169808,VALID,19.3325,VALID,18,VALID,0.676786,
2001-12-15, 02:41:00,VALID,918.666,VALID,0,VALID,98.8673,VALID,0,VALID,19.3205,VALID,11,VALID,0.657095,
2001-12-15, 02:42:00,VALID,918.679,VALID,0,VALID,98.8596,VALID,-0.0169808,VALID,19.291,VALID,22,VALID,0.706715,
2001-12-15, 02:43:01,VALID,918.681,VALID,0,VALID,98.8469,VALID,-0.0339617,VALID,19.2587,VALID,20,VALID,0.769942,
2001-12-15, 02:44:00,VALID,918.688,VALID,0,VALID,98.8278,VALID,0,VALID,19.2524,VALID,18,VALID,0.512153,
2001-12-15, 02:45:00,VALID,918.679,VALID,0,VALID,98.8393,VALID,-0.0339617,VALID,19.2333,VALID,12,VALID,0.573808,
2001-12-15, 02:46:00,VALID,918.664,VALID,0,VALID,98.8202,VALID,-0.0339617,VALID,19.2137,VALID,357,VALID,0.331503,
2001-12-15, 02:47:01,VALID,918.667,VALID,0,VALID,98.8266,VALID,0.0169808,VALID,19.1906,VALID,1,VALID,0.202895,
2001-12-15, 02:48:00,VALID,918.649,VALID,0,VALID,98.8406,VALID,-0.0169808,VALID,19.1973,VALID,1,VALID,0,
2001-12-15, 02:49:00,VALID,918.614,VALID,0,VALID,98.8647,VALID,0,VALID,19.1911,VALID,1,VALID,0.00105574,
2001-12-15, 02:50:00,VALID,918.628,VALID,0,VALID,98.894,VALID,-0.0169808,VALID,19.1973,VALID,1,VALID,0,
2001-12-15, 02:51:01,VALID,918.613,VALID,0,VALID,98.9067,VALID,-0.0339617,VALID,19.2204,VALID,1,VALID,0,
2001-12-15, 02:52:00,VALID,918.589,VALID,0,VALID,98.9397,VALID,-0.0509425,VALID,19.2524,VALID,1,VALID,0,
2001-12-15, 02:53:01,VALID,918.592,VALID,0,VALID,98.9563,VALID,0,VALID,19.2718,VALID,1,VALID,0.021234,
2001-12-15, 02:54:00,VALID,918.578,VALID,0,VALID,98.9588,VALID,0.0169808,VALID,19.2847,VALID,1,VALID,0.214015,
2001-12-15, 02:55:00,VALID,918.561,VALID,0,VALID,98.9626,VALID,-0.0169808,VALID,19.285,VALID,10,VALID,0.431027,
2001-12-15, 02:56:00,VALID,918.563,VALID,0,VALID,98.9512,VALID,0,VALID,19.2877,VALID,26,VALID,0.379645,
2001-12-15, 02:57:00,VALID,918.55,VALID,0,VALID,98.9728,VALID,-0.0169808,VALID,19.3039,VALID,26,VALID,0.438133,
2001-12-15, 02:58:01,VALID,918.55,VALID,0,VALID,98.969,VALID,-0.0169808,VALID,19.3071,VALID,29,VALID,0.445518,
2001-12-15, 02:59:00,VALID,918.546,VALID,0,VALID,98.9639,VALID,0,VALID,19.3141,VALID,29,VALID,0.254774,
2001-12-15, 03:00:00,VALID,918.536,VALID,0,VALID,98.9779,VALID,0.0169808,VALID,19.3131,VALID,29,VALID,0.0844984,
2001-12-15, 03:01:00,VALID,918.537,VALID,0,VALID,98.9842,VALID,-0.0169808,VALID,19.3329,VALID,29,VALID,0,
2001-12-15, 03:02:00,VALID,918.518,VALID,0,VALID,98.9753,VALID,-0.0169808,VALID,19.3237,VALID,29,VALID,0,
2001-12-15, 03:03:00,VALID,918.511,VALID,0,VALID,98.9626,VALID,0,VALID,19.32,VALID,33,VALID,0.0203536,
2001-12-15, 03:04:00,VALID,918.5,VALID,0,VALID,98.9283,VALID,0,VALID,19.2935,VALID,53,VALID,0.323902,
2001-12-15, 03:05:00,VALID,918.486,VALID,0,VALID,98.894,VALID,-0.0169808,VALID,19.2748,VALID,59,VALID,0.472862,
2001-12-15, 03:06:01,VALID,918.482,VALID,0,VALID,98.9308,VALID,-0.0169808,VALID,19.252,VALID,48,VALID,0.36402,
2001-12-15, 03:07:00,VALID,918.469,VALID,0,VALID,98.9486,VALID,-0.0169808,VALID,19.2616,VALID,43,VALID,0.0296875,
2001-12-15, 03:08:01,VALID,918.46,VALID,0,VALID,98.9652,VALID,-0.0169808,VALID,19.2753,VALID,43,VALID,0.0789263,
2001-12-15, 03:09:00,VALID,918.442,VALID,0,VALID,98.9753,VALID,0,VALID,19.2718,VALID,43,VALID,0.00426136,
2001-12-15, 03:10:00,VALID,918.407,VALID,0,VALID,98.969,VALID,0,VALID,19.2654,VALID,43,VALID,0,
2001-12-15, 03:11:00,VALID,918.407,VALID,0,VALID,98.9677,VALID,-0.0169808,VALID,19.2651,VALID,43,VALID,0,
2001-12-15, 03:12:00,VALID,918.387,VALID,0,VALID,98.9575,VALID,-0.0169808,VALID,19.249,VALID,43,VALID,0,
2001-12-15, 03:13:01,VALID,918.372,VALID,0,VALID,98.9652,VALID,0,VALID,19.2524,VALID,43,VALID,0,
2001-12-15, 03:14:00,VALID,918.344,VALID,0,VALID,98.9766,VALID,-0.0169808,VALID,19.249,VALID,43,VALID,0,
2001-12-15, 03:15:00,VALID,918.347,VALID,0,VALID,98.9753,VALID,0,VALID,19.2587,VALID,30,VALID,0.00185033,
2001-12-15, 03:16:00,VALID,918.341,VALID,0,VALID,98.9817,VALID,-0.0169808,VALID,19.2485,VALID,30,VALID,0.000633446,
2001-12-15, 03:17:01,VALID,918.353,VALID,0,VALID,98.9817,VALID,0,VALID,19.2487,VALID,29,VALID,0.0505515,
2001-12-15, 03:18:00,VALID,918.344,VALID,0,VALID,98.9677,VALID,0,VALID,19.2331,VALID,24,VALID,0.0353618,
2001-12-15, 03:19:00,VALID,918.339,VALID,0,VALID,98.9423,VALID,0,VALID,19.2072,VALID,20,VALID,0.00105574,
2001-12-15, 03:20:00,VALID,918.313,VALID,0,VALID,98.9232,VALID,-0.0169808,VALID,19.1811,VALID,20,VALID,0,
2001-12-15, 03:21:01,VALID,918.305,VALID,0,VALID,98.9385,VALID,0,VALID,19.1811,VALID,20,VALID,0,
2001-12-15, 03:22:00,VALID,918.292,VALID,0,VALID,98.9385,VALID,0.0169808,VALID,19.1876,VALID,20,VALID,0,
2001-12-15, 03:23:01,VALID,918.271,VALID,0,VALID,98.9626,VALID,-0.0169808,VALID,19.1809,VALID,20,VALID,0,
2001-12-15, 03:24:00,VALID,918.234,VALID,0,VALID,98.9639,VALID,-0.0169808,VALID,19.1906,VALID,20,VALID,0,
2001-12-15, 03:25:00,VALID,918.217,VALID,0,VALID,98.9766,VALID,0,VALID,19.2003,VALID,20,VALID,0,
2001-12-15, 03:26:00,VALID,918.2,VALID,0,VALID,98.969,VALID,-0.0169808,VALID,19.204,VALID,20,VALID,0,
2001-12-15, 03:27:00,VALID,918.185,VALID,0,VALID,98.9741,VALID,0,VALID,19.2037,VALID,20,VALID,0,
2001-12-15, 03:28:01,VALID,918.182,VALID,0,VALID,98.9575,VALID,-0.0169808,VALID,19.1908,VALID,20,VALID,0,
2001-12-15, 03:29:00,VALID,918.18,VALID,0,VALID,98.9385,VALID,-0.0339617,VALID,19.1744,VALID,19,VALID,0,
2001-12-15, 03:30:00,VALID,918.182,VALID,0,VALID,98.9448,VALID,-0.0169808,VALID,19.1744,VALID,18,VALID,0,
2001-12-15, 03:31:01,VALID,918.182,VALID,0,VALID,98.9639,VALID,0,VALID,19.2005,VALID,18,VALID,0.22234,
2001-12-15, 03:32:00,VALID,918.166,VALID,0,VALID,98.9397,VALID,-0.0339617,VALID,19.2107,VALID,5,VALID,0.404182,
2001-12-15, 03:33:01,VALID,918.169,VALID,0,VALID,98.9245,VALID,0,VALID,19.1908,VALID,355,VALID,0.338816,
2001-12-15, 03:34:01,VALID,918.156,VALID,0,VALID,98.9296,VALID,-0.0339617,VALID,19.207,VALID,354,VALID,0.0244932,
2001-12-15, 03:35:00,VALID,918.158,VALID,0,VALID,98.9308,VALID,0,VALID,19.2065,VALID,357,VALID,0.182771,
2001-12-15, 03:36:01,VALID,918.13,VALID,0,VALID,98.9461,VALID,0,VALID,19.2226,VALID,360,VALID,0.3106,
2001-12-15, 03:37:00,VALID,918.117,VALID,0,VALID,98.9474,VALID,-0.0169808,VALID,19.2457,VALID,5,VALID,0.0875,
2001-12-15, 03:38:01,VALID,918.09,VALID,0,VALID,98.9308,VALID,0,VALID,19.2492,VALID,5,VALID,0,
2001-12-15, 03:39:00,VALID,918.067,VALID,0,VALID,98.9168,VALID,-0.0169808,VALID,19.2197,VALID,5,VALID,0,